GW4813 Weather Reports


time (UTC)temp
C
wind
direction
speed
KPH
gust
KPH
rain 1hr
cm
rain 24hr
cm
rain mn
cm
humidity
%
barometer
mb
20260507161504 11 326 4.8 22.5 0.00 0.00 0.00 49 1015.6
20260507161003 11 347 8.0 20.9 0.00 0.00 0.00 49 1015.6
20260507160504 11 296 8.0 24.1 0.00 0.00 0.00 51 1015.6
20260507160005 11 252 9.7 24.1 0.00 0.00 0.00 49 1015.6
20260507155510 11 328 8.0 24.1 0.00 0.00 0.00 49 1015.7
20260507155006 11 313 11.3 20.9 0.00 0.00 0.00 48 1015.6
20260507154522 11 341 11.3 20.9 0.00 0.00 0.00 47 1015.6
20260507154008 11 303 6.4 20.9 0.00 0.00 0.00 51 1015.6
20260507153505 11 281 8.0 17.7 0.00 0.00 0.00 52 1015.5
20260507153029 11 311 6.4 16.1 0.00 0.00 0.00 51 1015.5
20260507152508 10 300 8.0 16.1 0.00 0.00 0.00 53 1015.4
20260507152011 10 262 9.7 16.1 0.00 0.00 0.00 50 1015.4
20260507151519 10 312 3.2 14.5 0.00 0.00 0.00 54 1015.3
20260507151009 10 323 6.4 16.1 0.00 0.00 0.00 52 1015.4
20260507150504 10 226 8.0 16.1 0.00 0.00 0.00 51 1015.4
20260507150003 10 294 6.4 20.9 0.00 0.00 0.00 52 1015.4
20260507145503 10 290 12.9 24.1 0.00 0.00 0.00 52 1015.4
20260507145005 10 253 11.3 24.1 0.00 0.00 0.00 50 1015.4
20260507144510 10 281 6.4 14.5 0.00 0.00 0.00 51 1015.4
20260507144007 10 297 8.0 14.5 0.00 0.00 0.00 51 1015.5
20260507143505 10 321 6.4 14.5 0.00 0.00 0.00 51 1015.4
20260507143022 10 297 4.8 14.5 0.00 0.00 0.00 52 1015.4
20260507142509 10 347 8.0 14.5 0.00 0.00 0.00 51 1015.5
20260507142006 10 302 4.8 12.9 0.00 0.00 0.00 53 1015.4
20260507141519 10 15 3.2 14.5 0.00 0.00 0.00 55 1015.4
20260507141009 9 311 4.8 14.5 0.00 0.00 0.00 53 1015.5
20260507140507 9 330 6.4 16.1 0.00 0.00 0.00 54 1015.5
20260507140025 9 296 6.4 22.5 0.00 0.00 0.00 53 1015.4
20260507135506 9 344 6.4 22.5 0.00 0.00 0.00 53 1015.4
20260507135007 9 324 8.0 22.5 0.00 0.00 0.00 56 1015.4
20260507134508 9 294 6.4 12.9 0.00 0.00 0.00 57 1015.4
20260507134004 9 354 4.8 12.9 0.00 0.00 0.00 57 1015.4
20260507133506 9 297 4.8 14.5 0.00 0.00 0.00 58 1015.5
20260507133012 8 318 4.8 14.5 0.00 0.00 0.00 58 1015.6
20260507132505 8 271 3.2 9.7 0.00 0.00 0.00 60 1015.6
20260507132007 8 283 4.8 12.9 0.00 0.00 0.00 60 1015.7
20260507131519 8 281 3.2 12.9 0.00 0.00 0.00 62 1015.6
20260507131006 8 252 4.8 8.0 0.00 0.00 0.00 64 1015.6
20260507130511 8 276 3.2 6.4 0.00 0.00 0.00 64 1015.6
20260507130030 8 311 1.6 6.4 0.00 0.00 0.00 69 1015.6
20260507125510 8 298 1.6 8.0 0.00 0.00 0.00 69 1015.6
20260507125012 8 316 3.2 8.0 0.00 0.00 0.00 73 1015.6
20260507124528 7 280 3.2 8.0 0.00 0.00 0.00 72 1015.6
20260507124008 7 317 1.6 4.8 0.00 0.00 0.00 73 1015.7
20260507123511 7 302 1.6 4.8 0.00 0.00 0.00 75 1015.6
20260507123027 7 317 1.6 4.8 0.00 0.00 0.00 77 1015.7
20260507122503 6 314 1.6 4.8 0.00 0.00 0.00 76 1015.6
20260507122008 6 293 0.0 3.2 0.00 0.00 0.00 78 1015.6
20260507121512 6 274 1.6 3.2 0.00 0.00 0.00 80 1015.6
20260507121008 6 278 0.0 3.2 0.00 0.00 0.00 80 1015.5
20260507120509 6 269 0.0 0.0 0.00 0.00 0.00 83 1015.6
20260507120021 5 259 0.0 0.0 0.00 0.00 0.00 86 1015.6
20260507115506 5 248 0.0 0.0 0.00 0.00 0.00 89 1015.5
20260507115013 5 249 0.0 0.0 0.00 0.00 0.00 90 1015.6
20260507114521 5 233 0.0 0.0 0.00 0.00 0.00 93 1015.6
20260507114018 4 227 0.0 0.0 0.00 0.00 0.00 94 1015.6
20260507113509 4 149 0.0 0.0 0.00 0.00 0.00 95 1015.5
20260507113028 3 127 0.0 0.0 0.00 0.00 0.00 95 1015.6
20260507112510 3 112 0.0 0.0 0.00 0.00 0.00 95 1015.5
20260507112011 3 112 0.0 0.0 0.00 0.00 0.00 95 1015.4
20260507111527 3 112 0.0 0.0 0.00 0.00 0.00 96 1015.4
20260507111011 3 112 0.0 0.0 0.00 0.00 0.00 97 1015.4
20260507110504 2 112 0.0 0.0 0.00 0.00 0.00 97 1015.3
20260507110016 2 112 0.0 0.0 0.00 0.00 0.00 97 1015.3
20260507105506 1 112 0.0 0.0 0.00 0.00 0.00 97 1015.3
20260507105010 1 112 0.0 0.0 0.00 0.00 0.00 96 1015.2
20260507104520 1 112 0.0 0.0 0.00 0.00 0.00 96 1015.2
20260507104011 1 112 0.0 0.0 0.00 0.00 0.00 96 1015.0
20260507103503 1 112 0.0 0.0 0.00 0.00 0.00 96 1015.1
20260507103005 2 112 0.0 0.0 0.00 0.00 0.00 97 1015.1
20260507102502 2 112 0.0 0.0 0.00 0.00 0.00 97 1015.0
20260507102006 2 112 0.0 0.0 0.00 0.00 0.00 97 1015.0
20260507101507 1 112 0.0 0.0 0.00 0.00 0.00 97 1015.1
20260507101004 1 112 0.0 0.0 0.00 0.00 0.00 97 1015.0
20260507100505 1 112 0.0 0.0 0.00 0.00 0.00 97 1015.0
20260507100012 1 112 0.0 0.0 0.00 0.00 0.00 96 1015.1
20260507095508 1 112 0.0 0.0 0.00 0.00 0.00 96 1015.0
20260507095007 1 112 0.0 0.0 0.00 0.00 0.00 97 1015.0
20260507094517 1 112 0.0 0.0 0.00 0.00 0.00 96 1015.0
20260507094007 1 112 0.0 0.0 0.00 0.00 0.00 96 1015.0
20260507093507 2 112 0.0 0.0 0.00 0.00 0.00 96 1014.9
20260507093004 2 112 0.0 0.0 0.00 0.00 0.00 97 1014.8
20260507092503 2 112 0.0 0.0 0.00 0.00 0.00 97 1014.8
20260507092003 2 112 0.0 0.0 0.00 0.00 0.00 96 1014.8
20260507091504 2 112 0.0 0.0 0.00 0.00 0.00 96 1014.8
20260507091004 2 112 0.0 0.0 0.00 0.00 0.00 96 1014.8
20260507090503 2 112 0.0 0.0 0.00 0.00 0.00 96 1014.7
20260507090009 2 112 0.0 0.0 0.00 0.00 0.00 96 1014.9
20260507085503 2 112 0.0 0.0 0.00 0.00 0.00 95 1014.8
20260507085007 2 112 0.0 0.0 0.00 0.00 0.00 95 1014.7
20260507084517 2 112 0.0 0.0 0.00 0.00 0.00 96 1014.8
20260507084007 2 112 0.0 0.0 0.00 0.00 0.00 95 1014.7
20260507083507 2 112 0.0 0.0 0.00 0.00 0.00 96 1014.6
20260507083018 2 112 0.0 0.0 0.00 0.00 0.00 96 1014.7
20260507082505 2 112 0.0 0.0 0.00 0.03 0.00 96 1014.7
20260507082008 2 112 0.0 0.0 0.00 0.03 0.00 95 1014.7
20260507081524 3 112 0.0 0.0 0.00 0.03 0.00 95 1014.7
20260507081004 3 112 0.0 0.0 0.00 0.03 0.00 95 1014.6
20260507080503 3 112 0.0 0.0 0.00 0.05 0.00 96 1014.6
20260507080004 3 112 0.0 0.0 0.00 0.05 0.00 96 1014.6
20260507075503 3 112 0.0 0.0 0.00 0.05 0.00 95 1014.7
20260507075003 3 112 0.0 0.0 0.00 0.08 0.00 95 1014.7
20260507074511 3 112 0.0 0.0 0.00 0.10 0.00 96 1014.8
20260507074007 3 112 0.0 0.0 0.00 0.13 0.00 96 1014.7
20260507073507 3 112 0.0 0.0 0.00 0.15 0.00 95 1014.7
20260507073013 3 112 0.0 0.0 0.00 0.18 0.00 95 1014.7
20260507072507 3 112 0.0 0.0 0.00 0.20 0.00 95 1014.6
20260507072012 3 112 0.0 0.0 0.00 0.20 0.00 95 1014.7
20260507071553 3 112 0.0 0.0 0.00 0.20 0.00 95 1014.7
20260507071007 3 112 0.0 0.0 0.00 0.20 0.00 95 1014.6
20260507070509 3 112 0.0 0.0 0.00 0.23 0.00 95 1014.6
20260507070026 3 112 0.0 0.0 0.00 0.23 0.00 95 1014.6
20260507065507 3 112 0.0 0.0 0.00 0.23 0.00 95 1014.7
20260507065002 3 112 0.0 0.0 0.00 0.23 0.00 95 1014.7
20260507064506 3 112 0.0 0.0 0.00 0.25 0.00 95 1014.7
20260507064008 3 112 0.0 0.0 0.00 0.25 0.00 95 1014.8
20260507063504 3 112 0.0 0.0 0.00 0.28 0.00 95 1014.8
20260507063008 4 112 0.0 0.0 0.00 0.28 0.00 95 1014.7
20260507062511 4 112 0.0 0.0 0.00 0.28 0.00 95 1014.8
20260507062007 4 112 0.0 0.0 0.00 0.30 0.00 95 1014.8
20260507061517 4 112 0.0 0.0 0.00 0.33 0.00 94 1014.7
20260507061007 4 112 0.0 0.0 0.00 0.36 0.00 94 1014.8
20260507060507 4 112 0.0 0.0 0.00 0.41 0.00 94 1014.9
20260507060022 4 108 0.0 0.0 0.00 0.46 0.00 95 1014.9
20260507055507 5 108 0.0 0.0 0.00 0.48 0.00 95 1014.8
20260507055012 4 108 0.0 0.0 0.00 0.51 0.00 95 1014.8
20260507054523 4 108 0.0 0.0 0.00 0.51 0.00 95 1014.8
20260507054012 4 108 0.0 0.0 0.00 0.53 0.00 95 1014.9
20260507053507 4 108 0.0 0.0 0.00 0.56 0.00 95 1014.9
20260507053007 4 108 0.0 0.0 0.00 0.58 0.00 94 1015.1
20260507052507 4 108 0.0 0.0 0.00 0.61 0.00 94 1015.1
20260507052007 4 108 0.0 0.0 0.00 0.64 0.00 94 1015.2
20260507051524 4 108 0.0 0.0 0.00 0.66 0.00 94 1015.2
20260507051005 4 108 0.0 0.0 0.00 0.71 0.00 94 1015.2
20260507050507 4 108 0.0 0.0 0.00 0.76 0.00 94 1015.2
20260507050021 4 108 0.0 0.0 0.00 0.79 0.00 93 1015.2
20260507045507 4 108 0.0 0.0 0.00 0.81 0.00 93 1015.1
20260507045010 4 108 0.0 0.0 0.00 0.84 0.00 93 1015.0
20260507044521 5 108 0.0 0.0 0.00 0.86 0.00 93 1015.0
20260507044010 5 108 0.0 0.0 0.00 0.86 0.00 93 1015.0
20260507043508 5 108 0.0 0.0 0.00 0.89 0.00 92 1015.0
20260507043026 5 108 0.0 0.0 0.00 0.89 0.00 92 1015.0
20260507042509 5 108 0.0 0.0 0.00 0.94 0.00 92 1015.0
20260507042008 5 108 0.0 0.0 0.00 0.97 0.00 92 1015.0
20260507041526 5 108 0.0 0.0 0.00 0.99 0.00 92 1015.0
20260507041006 5 108 0.0 0.0 0.00 1.04 0.00 91 1015.0
20260507040509 5 108 0.0 0.0 0.00 1.07 0.00 91 1015.0
20260507040014 5 108 0.0 0.0 0.00 1.07 0.00 91 1015.0
20260507035504 5 108 0.0 0.0 0.00 1.07 1.07 91 1015.0
20260507035006 5 108 0.0 0.0 0.00 1.07 1.07 90 1015.0
20260507034531 5 108 0.0 0.0 0.00 1.07 1.07 90 1014.9
20260507034008 5 108 0.0 0.0 0.00 1.07 1.07 90 1014.8
20260507033507 5 108 0.0 0.0 0.00 1.07 1.07 89 1014.8
20260507033034 6 108 0.0 0.0 0.00 1.07 1.07 89 1014.9
20260507032509 6 108 0.0 0.0 0.00 1.07 1.07 89 1014.9
20260507032011 6 113 0.0 0.0 0.00 1.07 1.07 89 1014.9
20260507031525 6 113 0.0 0.0 0.00 1.07 1.07 88 1014.9
20260507031013 6 113 0.0 0.0 0.00 1.07 1.07 88 1015.0
20260507030510 6 89 0.0 0.0 0.00 1.07 1.07 87 1015.1
20260507030029 6 318 0.0 0.0 0.00 1.07 1.07 87 1015.2
20260507025508 6 304 0.0 0.0 0.00 1.09 1.07 87 1015.2
20260507025005 6 304 0.0 0.0 0.00 1.09 1.07 88 1015.3
20260507024517 6 304 0.0 0.0 0.00 1.12 1.07 88 1015.2
20260507024007 6 304 0.0 0.0 0.00 1.14 1.07 88 1015.2
20260507023506 6 304 0.0 0.0 0.00 1.14 1.07 87 1015.2
20260507023025 6 304 0.0 0.0 0.00 1.19 1.07 86 1015.2
20260507022508 6 304 0.0 0.0 0.00 1.22 1.07 85 1015.1
20260507022008 6 304 0.0 0.0 0.00 1.27 1.07 83 1015.1
20260507021522 7 304 0.0 0.0 0.00 1.32 1.07 83 1015.1
20260507021012 7 304 0.0 0.0 0.00 1.37 1.07 83 1015.1
20260507020510 7 304 0.0 0.0 0.00 1.40 1.07 83 1014.9
20260507020025 8 304 0.0 0.0 0.00 1.42 1.07 81 1014.9
20260507015508 8 304 0.0 0.0 0.00 1.42 1.07 80 1014.7
20260507015017 8 304 0.0 0.0 0.00 1.45 1.07 80 1014.7
20260507014528 8 304 0.0 0.0 0.00 1.47 1.07 79 1014.6
20260507014012 8 304 0.0 0.0 0.00 1.47 1.07 79 1014.7
20260507013508 9 304 0.0 0.0 0.00 1.52 1.07 78 1014.7
20260507013013 9 304 0.0 0.0 0.00 1.57 1.07 75 1014.6
20260507012509 10 304 0.0 0.0 0.00 1.63 1.07 76 1014.6
20260507012007 10 304 0.0 0.0 0.00 1.68 1.07 72 1014.6
20260507011522 10 304 0.0 0.0 0.00 1.70 1.07 72 1014.6
20260507011008 10 304 0.0 0.0 0.00 1.75 1.07 68 1014.6
20260507010508 11 304 0.0 0.0 0.00 1.83 1.07 61 1014.6
20260507010027 11 304 0.0 0.0 0.00 1.85 1.07 61 1014.5
20260507005508 11 304 0.0 0.0 0.00 1.91 1.07 59 1014.4
20260507005006 11 304 0.0 0.0 0.00 1.93 1.07 58 1014.4
20260507004535 11 304 0.0 3.2 0.00 1.96 1.07 58 1014.2
20260507004011 11 299 0.0 3.2 0.00 1.98 1.07 58 1014.1
20260507003511 11 300 0.0 0.0 0.00 2.01 1.07 59 1014.1
20260507003026 11 299 0.0 1.6 0.00 2.03 1.07 57 1014.1
20260507002513 11 300 0.0 4.8 0.00 2.08 1.07 56 1014.0
20260507002017 12 312 1.6 4.8 0.00 2.11 1.07 56 1013.9
20260507001528 12 308 1.6 4.8 0.00 2.16 1.07 57 1014.0
20260507001012 12 313 0.0 4.8 0.00 2.18 1.07 57 1013.9
20260507000503 12 311 1.6 4.8 0.00 2.18 1.07 56 1013.8
20260507000007 12 330 3.2 6.4 0.00 2.21 1.07 55 1013.7
20260506235505 12 288 0.0 6.4 0.00 2.24 1.07 57 1013.8
20260506235003 12 349 1.6 6.4 0.00 2.26 1.07 56 1013.7
20260506234506 12 322 1.6 9.7 0.00 2.31 1.07 56 1013.7
20260506234006 12 312 1.6 9.7 0.00 2.31 1.07 56 1013.6
20260506233506 12 316 4.8 9.7 0.00 2.34 1.07 55 1013.6
20260506233009 12 350 4.8 8.0 0.00 2.36 1.07 55 1013.7
20260506232505 12 297 1.6 6.4 0.00 2.36 1.07 56 1013.6
20260506232006 12 331 1.6 8.0 0.00 2.36 1.07 55 1013.7
20260506231516 12 283 3.2 8.0 0.00 2.39 1.07 55 1013.7
20260506231008 12 314 1.6 6.4 0.00 2.41 1.07 56 1013.9
20260506230502 12 311 1.6 6.4 0.00 2.46 1.07 56 1013.9
20260506230003 12 302 1.6 8.0 0.00 2.49 1.07 56 1014.0
20260506225502 13 331 4.8 8.0 0.00 2.51 1.07 53 1013.9
20260506225003 13 333 0.0 6.4 0.00 2.54 1.07 56 1014.1
20260506224506 12 264 1.6 8.0 0.00 2.62 1.07 54 1014.1
20260506224007 12 53 1.6 8.0 0.00 2.64 1.07 54 1014.1
20260506223505 12 305 3.2 8.0 0.00 2.72 1.07 53 1014.1
20260506223010 12 320 3.2 8.0 0.00 2.79 1.07 52 1014.2
20260506222504 12 351 1.6 8.0 0.00 2.79 1.07 53 1014.2
20260506222006 12 328 3.2 8.0 0.00 2.82 1.07 54 1014.2
20260506221512 12 323 3.2 8.0 0.00 2.82 1.07 53 1014.2
20260506221004 12 8 3.2 8.0 0.00 2.82 1.07 53 1014.1
20260506220507 12 271 3.2 6.4 0.00 2.84 1.07 53 1014.1
20260506220031 12 290 1.6 6.4 0.00 2.90 1.07 53 1014.2
20260506215507 12 319 3.2 9.7 0.00 2.92 1.07 52 1014.1
20260506215002 12 300 3.2 11.3 0.00 2.92 1.07 51 1014.1
20260506214505 12 311 4.8 11.3 0.00 2.92 1.07 51 1013.9
20260506214003 12 319 3.2 9.7 0.00 2.92 1.07 51 1013.9
20260506213503 12 319 3.2 9.7 0.00 2.92 1.07 53 1013.9
20260506213005 13 286 3.2 9.7 0.00 2.95 1.07 51 1013.8
20260506212504 13 315 3.2 9.7 0.00 2.95 1.07 52 1013.7
20260506212004 13 327 6.4 12.9 0.00 2.95 1.07 49 1013.7
20260506211509 13 309 4.8 12.9 0.00 2.95 1.07 51 1013.7
20260506211007 13 330 4.8 11.3 0.00 2.95 1.07 53 1013.6
20260506210506 13 270 3.2 9.7 0.00 2.95 1.07 54 1013.7
20260506210016 13 339 4.8 9.7 0.00 2.95 1.07 55 1013.6
20260506205511 13 303 4.8 9.7 0.00 2.97 1.07 54 1013.5
20260506205007 13 322 3.2 9.7 0.00 2.97 1.07 56 1013.6
20260506204522 12 288 3.2 8.0 0.00 3.02 1.07 56 1013.6
20260506204010 13 330 4.8 9.7 0.00 3.05 1.07 55 1013.6
20260506203507 13 320 3.2 9.7 0.00 3.07 1.07 53 1013.6
20260506203004 13 317 4.8 9.7 0.00 3.10 1.07 53 1013.5
20260506202503 13 338 3.2 9.7 0.00 3.12 1.07 56 1013.6
20260506202007 13 323 3.2 12.9 0.00 3.15 1.07 54 1013.6
20260506201506 13 297 4.8 14.5 0.00 3.15 1.07 53 1013.6
20260506201004 13 328 4.8 14.5 0.00 3.17 1.07 52 1013.5
20260506200503 13 318 6.4 11.3 0.00 3.23 1.07 53 1013.4
20260506200012 13 315 4.8 11.3 0.00 3.28 1.07 57 1013.4
20260506195506 13 294 3.2 12.9 0.00 3.30 1.07 55 1013.3
20260506195003 13 335 4.8 12.9 0.00 3.30 1.07 55 1013.3
20260506194516 13 360 4.8 11.3 0.00 3.30 1.07 54 1013.2
20260506194008 13 336 4.8 11.3 0.00 3.30 1.07 56 1013.3
20260506193512 13 52 6.4 11.3 0.00 3.30 1.07 57 1013.3
20260506193020 13 325 4.8 14.5 0.00 3.30 1.07 54 1013.3
20260506192511 12 338 6.4 14.5 0.00 3.30 1.07 54 1013.3
20260506192011 13 345 6.4 11.3 0.00 3.30 1.07 55 1013.4
20260506191506 13 38 4.8 11.3 0.00 3.30 1.07 54 1013.3
20260506191005 13 330 4.8 11.3 0.00 3.30 1.07 54 1013.3
20260506190504 13 335 6.4 11.3 0.00 3.30 1.07 53 1013.3
20260506190012 13 310 3.2 9.7 0.00 3.30 1.07 55 1013.4
20260506185505 13 280 1.6 16.1 0.00 3.30 1.07 52 1013.3
20260506185008 13 314 4.8 16.1 0.00 3.30 1.07 53 1013.3
20260506184516 13 331 6.4 17.7 0.00 3.30 1.07 54 1013.3
20260506184013 13 10 6.4 17.7 0.00 3.30 1.07 53 1013.0
20260506183508 14 57 6.4 14.5 0.00 3.30 1.07 53 1013.0
20260506183020 14 343 4.8 12.9 0.00 3.30 1.07 53 1012.9
20260506182507 13 287 3.2 9.7 0.00 3.30 1.07 53 1013.0
20260506182011 13 309 4.8 14.5 0.00 3.30 1.07 55 1013.2
20260506181522 13 335 6.4 14.5 0.00 3.30 1.07 56 1013.2
20260506181010 13 349 8.0 14.5 0.00 3.30 1.07 54 1013.1
20260506180508 13 327 4.8 11.3 0.00 3.30 1.07 55 1013.3
20260506180026 13 44 4.8 14.5 0.00 3.30 1.07 55 1013.4
20260506175506 13 20 9.7 14.5 0.00 3.30 1.07 53 1013.5
20260506175006 13 306 3.2 11.3 0.00 3.30 1.07 57 1013.4
20260506174510 13 322 6.4 11.3 0.00 3.30 1.07 56 1013.4
20260506174004 13 351 4.8 8.0 0.00 3.30 1.07 55 1013.4
20260506173505 13 338 4.8 20.9 0.00 3.30 1.07 56 1013.4
20260506173016 13 15 6.4 20.9 0.00 3.30 1.07 56 1013.5
20260506172506 13 311 3.2 11.3 0.00 3.30 1.07 60 1013.5
20260506172011 13 341 6.4 11.3 0.00 3.30 1.07 58 1013.5
20260506171522 13 322 4.8 9.7 0.00 3.30 1.07 60 1013.5
20260506171009 13 356 4.8 12.9 0.00 3.30 1.07 58 1013.7
20260506170508 13 304 3.2 12.9 0.00 3.30 1.07 60 1013.8
20260506170024 13 302 4.8 14.5 0.00 3.30 1.07 61 1013.6
20260506165514 13 275 4.8 14.5 0.00 3.30 1.07 62 1013.6
20260506165007 13 339 6.4 11.3 0.00 3.30 1.07 62 1013.5
20260506164527 13 273 4.8 16.1 0.00 3.30 1.07 60 1013.4
20260506164005 12 7 3.2 16.1 0.00 3.30 1.07 62 1013.4
20260506163504 12 301 4.8 14.5 0.00 3.30 1.07 61 1013.5
20260506163010 12 345 4.8 12.9 0.00 3.30 1.07 61 1013.7
20260506162505 12 347 6.4 25.7 0.00 3.30 1.07 60 1013.7
20260506162011 13 297 4.8 25.7 0.00 3.30 1.07 64 1013.7